Chicago Executive, IL

5:19 PM CST on November 19, 2019 (GMT -0600)
Chicago Executive

Weather History for KPWK - September, 2019

Change the Weather History Date:

Saturday, September 14, 2019

  Actual Average Record
Temperature  
Mean Temperature 70 °F 65 °F  
Max Temperature 82 °F 75 °F 87 °F (2004)
Min Temperature 58 °F 55 °F 44 °F (2011)
Degree Days  
Heating Degree Days 0 2  
Month to date heating degree days 2 20  
Since 1 July heating degree days 2 30  
Cooling Degree Days 5 3  
Month to date cooling degree days 80 56  
Year to date cooling degree days 887 753  
Growing Degree Days 20 (Base 50)    
Moisture  
Dew Point 57 °F    
Average Humidity 64    
Maximum Humidity 83    
Minimum Humidity 48    
Precipitation  
Precipitation T in 0.10 in 0.63 in (1998)
Month to date precipitation 3.93 1.49  
Year to date precipitation 33.25 23.97  
Sea Level Pressure  
Sea Level Pressure 30.17 in    
Wind  
Wind Speed 5 mph ()    
Max Wind Speed 14 mph    
Max Gust Speed 19 mph    
Visibility 10.0 miles    
Events      
T = Trace of Precipitation, MM = Missing Value Source: Averaged Metar Reports

Daily Weather History Graph

Daily Weather History Graph

Search for Another Location

Airport or City:

Astronomy

Sep. 14, 2019 Rise Set
Actual Time 6:30 AM CDT 7:03 PM CDT
Civil Twilight 6:02 AM CDT 7:31 PM CDT
Nautical Twilight 5:29 AM CDT 8:04 PM CDT
Astronomical Twilight 4:54 AM CDT 8:38 PM CDT
Moon 7:44 PM CDT (9/14) 6:42 AM CDT (9/14)
Length of Visible Light 13h 29m
Length of Day
12h 32m
Full, 100% of the Moon is Illuminated
Sep 14
Full
Sep 21
Last Quarter
Sep 28
New
Oct 5
First Quarter
Oct 13
Full

Hourly Weather History & Observations

Time (CDT) Temp. Heat Index Dew Point Humidity Pressure Visibility Wind Dir Wind Speed Gust Speed Precip Events Conditions
12:52 AM 64.0 °F - 54.0 °F 70% 30.13 in 10.0 mi WSW 8.1 mph - N/A   Clear
1:52 AM 63.0 °F - 54.0 °F 72% 30.14 in 10.0 mi WSW 4.6 mph - N/A   Clear
2:52 AM 62.1 °F - 54.0 °F 75% 30.14 in 10.0 mi WSW 4.6 mph - N/A   Clear
3:52 AM 61.0 °F - 54.0 °F 78% 30.17 in 10.0 mi WSW 4.6 mph - N/A   Clear
4:52 AM 60.1 °F - 54.0 °F 80% 30.18 in 10.0 mi Calm Calm - N/A   Clear
5:52 AM 59.0 °F - 54.0 °F 83% 30.20 in 10.0 mi Calm Calm - N/A   Clear
6:52 AM 59.0 °F - 54.0 °F 83% 30.22 in 10.0 mi Calm Calm - N/A   Clear
7:52 AM 60.1 °F - 55.0 °F 83% 30.23 in 10.0 mi SSW 3.5 mph - N/A   Clear
8:52 AM 64.0 °F - 55.0 °F 73% 30.23 in 10.0 mi Variable 3.5 mph - N/A   Clear
9:52 AM 66.9 °F - 54.0 °F 63% 30.23 in 10.0 mi WSW 6.9 mph - N/A   Clear
10:52 AM 70.0 °F - 53.1 °F 55% 30.22 in 10.0 mi South 4.6 mph - N/A   Clear
11:52 AM 72.0 °F - 54.0 °F 53% 30.21 in 10.0 mi Variable 4.6 mph - N/A   Clear
12:52 PM 75.0 °F - 55.0 °F 50% 30.19 in 10.0 mi SSW 10.4 mph - N/A   Clear
1:52 PM 78.1 °F - 57.9 °F 50% 30.18 in 10.0 mi WSW 9.2 mph - N/A   Clear
2:52 PM 79.0 °F - 59.0 °F 50% 30.16 in 10.0 mi West 10.4 mph - N/A   Clear
3:52 PM 80.1 °F 80.9 °F 60.1 °F 50% 30.14 in 10.0 mi SW 9.2 mph - N/A   Clear
4:52 PM 81.0 °F 81.6 °F 60.1 °F 49% 30.14 in 10.0 mi SW 12.7 mph - N/A   Clear
5:52 PM 80.1 °F 80.7 °F 59.0 °F 48% 30.12 in 10.0 mi SW 5.8 mph - N/A   Clear
6:52 PM 78.1 °F - 57.9 °F 50% 30.12 in 10.0 mi South 5.8 mph - N/A   Clear
7:52 PM 73.9 °F - 62.1 °F 66% 30.11 in 10.0 mi SSE 4.6 mph - N/A   Mostly Cloudy
8:52 PM 73.0 °F - 62.1 °F 68% 30.12 in 10.0 mi South 3.5 mph - N/A   Scattered Clouds
10:52 PM 73.9 °F - 61.0 °F 64% 30.12 in 10.0 mi South 6.9 mph - N/A   Partly Cloudy
11:52 PM 75.0 °F - 60.1 °F 60% 30.12 in 10.0 mi SSW 10.4 mph - N/A   Scattered Clouds